Location: Northcutt
(34.7304°N, 84.4305°W)
Time: 02:57:00
(UTC+00:00)

Transit 2A Rocket - Pass Details

Date: 06 October 2022
Orbit: 588 x 912 km, 66.7° (Epoch: 08 December)

Event Time Altitude Azimuth Distance (km) Brightness Sun altitude
Rises 11:38:10 0° 260° (W) 2,825 7.3 -0.4°
Reaches altitude 10° 11:42:42 10° 304° (NW) 1,915 6.6 0.5°
Maximum altitude 11:43:14 10° 312° (NW) 1,903 6.6 0.6°
Drops below altitude 10° 11:43:47 10° 319° (NW) 1,918 6.7 0.7°
Sets 11:48:22 0° 4° (N) 2,851 7.9 1.6°
